AirNav   Air Wisconsin Airman Trainee
 
 610 users online  

96G Cowley Field Airport
Sandusky, Michigan, USA

GOING TO SANDUSKY?


FAA INFORMATION EFFECTIVE 23 MAY 2019

Location

FAA Identifier: 96G
Lat/Long: 43-22-32.6000N / 082-49-07.8000W
43-22.543333N / 082-49.130000W
43.3757222 / -82.8188333
(estimated)
Elevation: 770 ft. / 235 m (estimated)
Variation: 07W (1985)
From city: 3 miles S of SANDUSKY, MI
Time zone: UTC -4 (UTC -5 during Standard Time)
Zip code: 48471

Airport Operations

Airport use: Open to the public
Activation date: 04/1971
Control tower: no
ARTCC: CLEVELAND CENTER
FSS: LANSING FLIGHT SERVICE STATION
NOTAMs facility: LAN (NOTAM-D service available)
Attendance: IREG
SNOW REMOVAL IREG; VERIFY COND - CALL 810-648-2352.
Wind indicator: yes
Segmented circle: no

Airport Communications

CTAF: 122.9

Airport Services

Parking: tiedowns
Airframe service: NONE
Powerplant service: NONE
Bottled oxygen: NONE
Bulk oxygen: NONE

Runway Information

Runway 9/27

Dimensions: 2600 x 60 ft. / 792 x 18 m
Surface: turf, in good condition
Runway edge markings: RY MARKED WITH CONES.
RUNWAY 9  RUNWAY 27
Latitude: 43-22.536667N43-22.550000N
Longitude: 082-49.423333W082-48.836667W
Elevation: 770.0 ft.768.0 ft.
Traffic pattern: leftleft
Runway heading: 095 magnetic, 088 true275 magnetic, 268 true
Runway end identifier lights: nono
Obstructions: 53 ft. tree, 1089 ft. from runway, 20:1 slope to clear150 ft. pline, 5500 ft. from runway, 36:1 slope to clear

Airport Ownership and Management from official FAA records

Ownership: Privately-owned
Owner: DALE COWLEY
1515 SO SANDUSKY RD
SANDUSKY, MI 48471
Phone 810-648-2352
Manager: DALE COWLEY
1515 SO SANDUSKY RD
SANDUSKY, MI 48471
Phone 810-648-2352
AMGR LIVES AT ARPT.

Airport Operational Statistics

Aircraft based on the field: 1
Single engine airplanes: 1
    
Aircraft operations: 60/year *
83% transient general aviation
17% local general aviation
* for 12-month period ending 31 December 2015

Additional Remarks

DEER & TURKEYS ON & INVOF ARPT.
BE ALERT FOR CLOSE PROXIMITY OF POWER POLES ALONG TWY ON W END.

Instrument Procedures

There are no published instrument procedures at 96G.

Some nearby airports with instrument procedures:

77G - Marlette Township Airport (12 nm W)
KBAX - Huron County Memorial Airport (25 nm N)
D95 - Dupont-Lapeer Airport (27 nm SW)
KCFS - Tuscola Area Airport (28 nm W)
KPHN - St Clair County International Airport (31 nm SE)
 
Loc | Ops | Rwys | IFR | FBO | Links
Com | Nav | Svcs | Stats | Notes
Area around 96G (Cowley Field Airport)
 
Road maps at: MapQuest Bing Google
 
Aerial photo
WARNING: Photo may not be current or correct
Aerial photo of 96G (Cowley Field Airport)
Photo by Roy Carlson, Plainwell, MI

Do you have a better or more recent aerial photo of Cowley Field Airport that you would like to share? If so, please send us your photo.

 
Sectional chart

 
Airport distance calculator
Flying to Cowley Field Airport? Find the distance to fly.

From to 96G

Sunrise and sunset
Times for 16-Jun-2019
 Local
(UTC-4)
 Zulu
(UTC)
Morning civil twilight05:1509:15
Sunrise05:5109:51
Sunset21:1301:13
Evening civil twilight21:4801:48

Current date and time
Zulu (UTC)  16-Jun-2019 12:17:57
Local (UTC-4)  16-Jun-2019 08:17:57
 
METAR
KBAX 
25nm N 
161158Z AUTO 05004KT 10SM SCT050 OVC070 12/08 A2989 RMK AO2 T01200082 10122 20099
KD95 
27nm SW 
161156Z AUTO 02003KT 10SM SCT028 BKN045 OVC080 13/08 A2986 RMK AO2 70001 T01280079 10129 20124
KCFS 
28nm W 
161155Z AUTO 00000KT 10SM BKN043 BKN055 OVC070 13/08 A2988 RMK AO2 T01260083 10128 20120
KPHN 
31nm SE 
161156Z AUTO 02005KT 10SM OVC012 13/10 A2984 RMK AO2
CYZR 
32nm SE 
161107Z AUTO 02008KT 9SM BKN014 OVC070 13/12 A2981 RMK SLP097
KP58 
38nm N 
161151Z AUTO 03007KT 11/07 A2989 RMK AO1 SLP121 T01110072 10122 20100 53017
KMTC 
46nm S 
161155Z 34006KT 10SM OVC009 13/13 A2982 RMK AO2A SLP102 70013 T01330133 10137 20124 53010 $
KHYX 
46nm W 
161159Z AUTO 03005KT 10SM OVC034 13/09 A2988 RMK AO2
KFNT 
48nm SW 
161153Z 04007KT 10SM OVC021 14/07 A2987 RMK AO2 SLP112 T01390072 10139 20133 53014 $
KPTK 
50nm SW 
161202Z 02006KT 10SM OVC009 13/08 A2983 RMK AO2 T01330083
TAF
CYZR 
32nm SE 
160738Z 1608/1620 01008KT P6SM OVC015 TEMPO 1608/1620 OVC025 RMK FCST BASED ON AUTO OBS. NXT FCST BY 161400Z
NOTAMs
Click for the latest NOTAMs
NOTAMs are issued by the DoD/FAA and will open in a separate window not controlled by AirNav.

 

 
 

Would you like to see your business listed on this page?

 If your business provides an interesting product or service to pilots, flight crews, aircraft, or users of the Cowley Field Airport, you should consider listing it here.  To start the listing process, click on the button below
 
Add a business
 

Other Pages about Cowley Field Airport

Page from the Michigan Airport Directory (PDF)
 
Update a link
 
Copyright © AirNav, LLC. All rights reserved. Privacy Policy  Contact